Geraldton Greenstone Regional Airport
CYGQ : now visible

Airfield :











YOU CAN JOIN US ON...

 
LOGIN :

Register | Disclaimer

   EN    FR    IT 

 









Legend :    VFR   Marginal VFR   IFR   Intensive IFR   Very Intensive IFR
Visi :
Ceiling :
>= 8 km
>= 3000ft
5 to 8 km
1000 to 3000 ft
1500m to 5 km
500 to 1000 ft
800 to 1500m
200 to 500 ft
< 800m
< 200 ft
Symbols :   Thunderstorms  Fog  Heavy snow  Heavy precipitations  Wind > 20 kt






- Airport Elevation : 1144 ft
- IATA code : YGQ


CYGQ - Geraldton Greenstone Regional

CURRENT METAR :
  • 121600Z 31004KT 15SM FEW050 16/M04 A3034 RMK CU1 SLP286

EXPIRED METARs :
  • 121500Z 30007KT 250V330 15SM SKC 15/M04 A3035 RMK SLP288
  • 121400Z 30007KT 240V320 15SM SKC 14/M04 A3036 RMK SLP291

TAF TAF CYGQ
Valid from the 12 at 14:00 until the 13 at 02:00 UTC


121338Z 1214/1302 28005KT P6SM SKC
BECMG 1216/1218 SCT060
FM130000 26005KT P6SM SKC
BECMG 1300/1302 22005KT RMK NXT FCST BY 122000Z
CZWG FIR / North America



MET'MAP, your aeronautical weather chart ! - Copyright ORBIFLY December 2007 - Disclaimer

ORBIFLY MET'MAP TEAM :

Programming & Development : Alexandra Zaïnal
Concept & original design : Baudouin d'Aumeries
Assistance for programming : Marc-Olivier Méhu
Technical & hardware support : Manuel Goepfert

Contact : metmap@orbifly.com




SOURCES & CREDITS :

   NOAA       Earth
Advisory